Home   Weather   Watford   Past weeks

Flag for United Kingdom Past Weather in Watford, England, United Kingdom — Yesterday and Last 2 Weeks

Now
39 °F

Clear.


Feels Like: 37 °F
Forecast: 43 / 50 °F
Wind: 3 mph from Southeast

Location: Northolt

Current Time: Dec 11, 2016 at 4:12:56 am

Latest Report: Dec 11, 2016 at 2:50 am


Visibility: N/A

Pressure: 30.21 "Hg

Humidity: 100%

Dew Point: 39 °F

Location of WatfordLocation

Past Weather in Watford — Graph

°F

Watford Temperature Yesterday

Maximum temperature yesterday: 55 °F (at 9:50 am)
Minimum temperature yesterday: 43 °F (at 11:50 pm)
Average temperature yesterday: 53 °F

High & Low Weather Summary for the Past Weeks

 TemperatureHumidityPressure
High57 °F (Dec 9, 12:50 pm)100% (Nov 26, 4:50 am)30.60 "Hg (Nov 26, 4:50 am)
Low21 °F (Nov 30, 4:50 am)40% (Nov 28, 11:50 am)30.01 "Hg (Dec 10, 6:50 pm)
Average42 °F85%30.30 "Hg
* Reported Nov 26 2:50 am — Dec 11 2:50 am, Watford, Weather by CustomWeather, © 2016

Note: Actual official high and low records may vary slightly from our data, if they occured in-between our weather recording intervals... More about our weather records

Advertising

Watford Weather History for the Previous 24 Hours

Scroll right to see more
 ConditionsComfort  
Time TempWeatherWind HumidityBarometerVisibility
2:50 am
Sun, Dec 11
39 °FClear.3 mph100%30.21 "HgN/A
1:50 am43 °FClear.7 mph93%30.18 "HgN/A
12:50 am43 °FClear.5 mph93%30.15 "HgN/A
11:50 pm
Sat, Dec 10
43 °FPassing clouds.7 mph93%30.15 "HgN/A
10:50 pm45 °FPassing clouds.7 mph93%30.12 "HgN/A
9:50 pm48 °FPassing clouds.10 mph82%30.09 "HgN/A
8:50 pm50 °FLight rain. Mostly cloudy.22 mph88%30.07 "HgN/A
7:58 pm54 °FHeavy rain. Mostly cloudy.16 mph94%30.04 "Hg2 mi
7:50 pm54 °FRain. Low clouds.14 mph94%30.01 "Hg4 mi
6:50 pm54 °FRain. Mostly cloudy.13 mph94%30.01 "Hg4 mi
5:50 pm54 °FRain. Mostly cloudy.12 mph94%30.04 "Hg4 mi
4:50 pm54 °FLight rain. Mostly cloudy.9 mph94%30.07 "Hg5 mi
3:50 pm55 °FOvercast.10 mph88%30.09 "HgN/A
2:50 pm55 °FDrizzle. Partly sunny.8 mph94%30.09 "HgN/A
1:50 pm55 °FLow clouds.7 mph94%30.12 "HgN/A
12:50 pm55 °FPartly sunny.8 mph94%30.12 "HgN/A
11:50 am55 °FFog.6 mph94%30.15 "Hg6 mi
10:50 am55 °FFog.6 mph94%30.18 "Hg6 mi
9:50 am55 °FFog.7 mph88%30.18 "Hg6 mi
8:50 am54 °FPartly sunny.5 mph94%30.18 "HgN/A
7:50 am54 °FFog.7 mph94%30.15 "Hg4 mi
6:50 am54 °FFog.5 mph94%30.15 "Hg3 mi
5:50 am52 °FLow clouds.3 mph100%30.15 "Hg4 mi
4:50 am52 °FLow clouds.5 mph100%30.15 "Hg4 mi
Weather by CustomWeather, © 2016

See weather overviewHow to use our weather pages